Terminal Aerodrome Forecast
Issued by NWS Wichita, KS

Home | Current Version | Previous Version | Graphics & Text | Print | Product List | Glossary On
Versions: 1 2 3 4 5 6 7 8 9 10 11 12 13 14 15 16 17 18
000
FTUS43 KICT 282300
TAFICT
TAF
KICT 282334Z 2900/2924 01007KT P6SM SCT200
     FM290100 VRB03KT P6SM SKC
     FM291300 12006KT P6SM SCT050 SCT120=

USA.gov is the U.S. government's official web portal to all federal, state and local government web resources and services.